This demonstration page uses our WeatherBlox Daily Observations layout. Learn more.

Left ArrowRight Arrow

39.92423, -83.80882

Hourly Observations for January 11, 2022

Temp ( °F °C ) Dew Point ( °F °C ) Humidity (%) Winds ( mph kmh ) Pressure ( in mb ) Visibility ( mi km ) Precip ( " mm )
12:56 am 00:56 Clear 12 -11.1 8 -13.3 84 84 NNW 7 11 30.59 1036 10 16 0.00 0.00
1:56 am 01:56 Clear 12 -11.1 8 -13.3 84 84 NW 5 7 30.59 1036 10 16 0.00 0.00
2:56 am 02:56 Partly Cloudy with Isolated Snow Showers 11 -11.7 9 -12.8 92 92 WNW 3 6 30.59 1036 9 14 0.00 0.00
3:21 am 03:21 Mostly Cloudy 10 -12 9 -13 92 92 W 3 6 30.64 1038 10 16 0.00 0.00
3:56 am 03:56 Partly Cloudy with Scattered Snow Showers 11 -11.7 9 -12.8 92 92 Calm 30.58 1036 9 14 0.00 0.00
4:56 am 04:56 Clear 10 -12.2 9 -12.8 95 95 Calm 30.58 1036 10 16 0.00 0.00
5:56 am 05:56 Clear 10 -12.2 9 -12.8 95 95 W 3 6 30.60 1036 10 16 0.00 0.00
6:56 am 06:56 Clear 10 -12.2 9 -12.8 95 95 WSW 3 6 30.62 1037 10 16 0.00 0.00
7:56 am 07:56 Sunny 10 -12.2 9 -12.8 95 95 Calm 30.62 1037 10 16 0.00 0.00
8:56 am 08:56 Sunny 12 -11.1 10 -12.2 92 92 S 3 6 30.61 1037 10 16 0.00 0.00
9:56 am 09:56 Sunny 15 -9.4 10 -12.2 80 80 SSE 7 11 30.61 1037 10 16 0.00 0.00
10:56 am 10:56 Sunny 18 -7.8 12 -11.1 77 77 SE 9 15 30.60 1036 10 16 0.00 0.00
11:56 am 11:56 Sunny 20 -6.7 13 -10.6 74 74 SSE 9 15 30.56 1035 10 16 0.00 0.00
12:56 pm 12:56 Sunny 23 -5 13 -10.6 65 65 S 9 15 30.53 1034 10 16 0.00 0.00
1:56 pm 13:56 Sunny 25 -3.9 14 -10 63 63 S 8 13 30.50 1033 10 16 0.00 0.00
2:56 pm 14:56 Sunny 26 -3.3 14 -10 60 60 S 12 19 30.47 1032 10 16 0.00 0.00
3:56 pm 15:56 Sunny 28 -2.2 13 -10.6 53 53 SSW 9 15 30.45 1031 10 16 0.00 0.00
4:56 pm 16:56 Sunny 28 -2.2 14 -10 56 56 S 10 17 30.43 1031 10 16 0.00 0.00
5:56 pm 17:56 Clear 26 -3.3 15 -9.4 63 63 S 8 13 30.41 1030 10 16 0.00 0.00
6:56 pm 18:56 Clear 26 -3.3 14 -10 60 60 S 8 13 30.38 1029 10 16 0.00 0.00
7:56 pm 19:56 Clear 26 -3.3 15 -9.4 63 63 S 13 20 30.33 1027 10 16 0.00 0.00
8:56 pm 20:56 Clear 27 -2.8 15 -9.4 61 61 S 15 24 30.27 1025 10 16 0.00 0.00
9:56 pm 21:56 Clear 29 -1.7 14 -10 54 54 SSW 10 17 30.26 1025 10 16 0.00 0.00
10:56 pm 22:56 Clear 29 -1.7 15 -9.4 56 56 SSW 10 17 30.24 1024 10 16 0.00 0.00
11:56 pm 23:56 Clear 30 -1.1 16 -8.9 56 56 SSW 15 24 30.22 1023 10 16 0.00 0.00

Powered by AerisWeather